Theta_e
291 288 288 288 288 287 287 287 288 289 290 292 292 290 290 289 289 289 289 289 290 291
287 286 286 286 286 286 286 287 287 287 288 289 290 288 288 286 286 287 287 288 288 289
286 285 285 285 284 285 285 286 286 286 286 287 288 288 286 285 285 285 285 287 287 287
286 286 284 283 284 284 284 284 284 285 285 285 285 285 284 284 284 283 284 285 285 285
285 285 283 283 283 283 282 283 283 284 284 285 284 284 283 283 283 282 282 283 283 283
283 282 281 281 281 281 281 281 281 283 282 284 284 283 283 283 282 282 282 282 282 282
284 283 282 282 280 280 279 279 280 281 282 283 284 283 282 282 282 282 282 282 282 283
285 284 283 280 279 278 278 278 279 279 281 282 283 283 282 281 281 281 281 281 282 283
284 282 282 281 280 278 277 277 277 278 279 280 282 283 283 282 281 280 280 279 280 281
280 279 280 278 277 277 276 276 276 276 278 278 281 282 282 282 280 278 278 279 278 280
278 277 277 277 276 276 276 275 276 276 276 277 280 282 281 280 279 278 278 278 279 278
276 275 275 275 275 275 275 275 276 276 276 277 277 281 281 278 277 277 276 277 278 278
276 275 274 274 274 275 276 276 277 276 277 278 277 280 280 279 276 275 275 275 275 278
276 276 275 275 276 275 276 276 276 275 276 276 277 277 279 279 276 274 274 273 273 275
Wind_Speed
13 9 10 12 10 9 10 11 15 14 14 15 14 14 15 10 10 11 9 13 10 7
14 15 12 14 13 10 12 11 14 14 14 14 14 15 13 11 13 12 11 12 12 9
14 15 14 13 14 14 13 14 14 15 14 14 15 15 15 12 14 13 12 11 14 12
13 12 14 13 13 14 14 15 15 15 14 15 15 15 15 15 16 17 16 15 16 17
13 13 12 12 15 14 15 15 15 15 14 14 16 16 17 16 15 16 17 17 16 17
11 11 13 13 14 15 15 15 15 15 16 15 13 17 17 14 14 15 15 15 14 15
10 8 10 12 14 14 13 14 14 14 15 14 13 13 14 14 14 14 14 14 13 13
11 11 11 12 12 12 13 13 14 15 13 12 13 11 13 13 14 14 15 14 13 14
12 11 11 11 11 12 13 13 13 14 14 13 11 25 24 16 12 15 14 14 13 13
11 11 11 11 12 12 11 11 13 14 15 15 15 28 25 22 11 13 13 14 14 13
11 11 11 11 11 11 9 9 9 12 13 14 14 28 28 23 12 11 13 15 15 15
11 11 10 11 11 9 8 9 10 11 13 15 14 29 30 19 12 12 13 12 15 15
9 10 10 10 10 9 8 10 9 12 13 19 15 27 29 23 10 12 10 12 14 23
9 10 10 9 9 10 10 10 11 12 11 14 18 18 28 28 14 11 11 11 10 11
Wind_Direction
12 5 4 1 358 355 354 348 347 344 348 354 9 2 8 353 7 3 6 10 5 358
9 11 7 7 9 2 357 353 354 352 353 358 4 15 3 4 7 7 7 11 1 6
11 13 8 11 11 4 357 359 358 357 2 5 6 7 17 4 3 14 14 15 6 10
7 18 16 16 13 5 358 0 2 359 4 10 12 12 24 9 5 12 11 14 14 13
11 7 9 12 14 12 6 2 1 2 5 25 17 15 19 9 7 12 15 13 16 14
6 10 19 16 14 16 7 5 3 9 6 6 21 16 15 10 7 13 18 17 12 19
2 3 16 17 16 16 8 7 6 4 13 8 16 21 15 10 12 16 19 16 17 18
12 15 31 31 23 13 9 7 5 7 0 8 18 22 19 13 14 18 19 16 15 25
15 16 19 18 24 20 11 8 7 6 5 8 19 21 22 20 16 20 20 14 12 20
12 16 21 18 18 15 10 4 9 7 9 10 13 25 20 22 17 22 15 16 14 18
13 19 13 15 13 6 1 3 13 11 8 9 8 19 24 15 16 19 20 12 20 17
19 17 13 13 3 356 358 5 11 15 14 17 11 20 19 18 11 15 19 17 10 25
21 19 14 6 2 354 5 11 10 15 16 15 14 13 19 21 11 9 14 13 15 17
11 26 13 2 6 6 8 12 12 14 12 17 14 12 18 20 19 11 7 11 8 6